CAPE
3 2 2 2 0 2 1 1 1 1 3 1 0 0 0 0 0 0 0 0 0 0 3 0 18 930 859 669 667 871 490 370 348 481 210 126 161 128 106 32 145 214 211 129 605
1 1 1 1 1 1 1 1 1 1 2 0 0 0 0 0 0 0 0 0 113 205 349 357 958 1213 861 901 383 930 484 337 439 602 422 93 80 111 177 78 311 564 287 204 452
1 1 1 1 1 2 2 1 0 1 0 0 0 0 0 0 0 0 0 0 436 429 597 727 1195 861 629 622 955 883 692 511 679 688 491 52 18 47 117 240 185 625 507 188 229
1 1 1 2 1 1 2 1 0 1 0 0 0 0 0 0 0 0 0 319 522 321 632 689 961 398 411 589 744 1171 661 586 582 646 305 162 12 75 83 140 114 586 379 165 177
1 1 2 1 1 1 2 1 1 0 0 0 0 0 0 0 0 0 252 117 60 586 251 117 572 297 604 655 752 661 550 303 364 620 386 146 168 174 149 85 267 498 285 141 100
1 1 1 1 1 1 2 1 1 0 0 0 0 0 0 0 0 0 0 102 707 738 674 55 303 330 536 594 825 574 599 392 317 575 342 275 414 247 188 253 565 397 225 73 23
1 1 1 1 0 1 1 1 0 0 0 0 0 0 0 0 0 0 18 226 653 580 653 244 307 611 653 672 678 722 542 398 409 380 593 443 493 339 277 404 593 394 183 36 22
1 1 1 1 1 1 1 1 0 0 0 0 0 0 0 0 0 0 20 143 904 745 337 388 502 959 1128 637 363 380 395 572 459 544 426 511 727 425 246 460 573 502 248 80 47
1 2 1 2 1 1 0 0 0 0 0 0 0 0 0 0 0 0 0 25 448 698 715 730 962 1057 857 438 426 340 402 545 451 422 482 450 630 544 289 350 492 572 529 325 244
2 3 1 3 1 0 0 0 0 0 0 0 0 0 0 0 0 0 0 0 53 378 773 749 790 810 535 636 269 319 235 255 318 422 388 480 481 566 509 326 425 452 510 596 534
4 4 2 1 1 0 0 0 0 0 0 0 0 0 0 0 0 0 0 0 568 672 584 800 822 491 393 419 393 459 402 285 300 386 410 418 442 449 583 623 545 559 559 581 641
2 3 2 0 1 1 0 0 0 0 0 0 0 0 0 0 0 0 0 225 398 386 353 691 403 290 281 281 332 332 266 116 353 464 503 350 1 247 524 788 728 677 623 625 692
2 3 2 1 0 0 0 0 0 0 0 0 0 0 0 0 0 0 0 210 134 267 383 551 468 328 297 384 376 80 95 63 81 473 602 577 0 0 586 687 786 808 812 769 749
3 2 1 0 0 0 0 0 0 0 0 0 0 0 0 0 0 0 0 15 103 373 482 500 401 382 384 144 250 158 136 127 112 231 91 468 23 0 0 3 495 643 929 726 883
1 1 0 0 0 0 0 0 0 0 0 0 0 0 0 0 0 0 0 0 80 243 487 479 362 319 285 124 145 161 26 79 267 241 152 213 170 108 94 0 0 0 5 208 551
1 1 0 0 0 0 0 0 0 0 0 0 0 0 0 0 56 28 0 7 136 223 334 471 396 331 235 106 154 100 65 232 320 230 145 49 294 20 64 50 6 0 0 57 236
1 0 1 0 0 0 0 0 0 0 0 0 0 0 1 21 5 179 284 211 398 489 420 200 115 74 51 79 214 110 75 164 108 137 77 62 193 59 226 256 210 124 78 90 488
0 0 0 0 0 0 0 0 0 0 0 0 0 0 0 70 56 115 291 472 391 382 331 95 17 5 0 0 10 25 13 64 76 70 50 107 103 204 186 329 228 281 582 635 1107
0 0 0 0 0 0 0 0 0 0 0 0 0 0 3 52 227 250 315 397 330 432 416 79 13 0 0 0 5 58 63 0 3 0 0 17 0 4 86 120 270 570 637 784 1033
0 0 0 0 0 0 0 0 0 0 0 0 9 8 112 116 268 269 351 321 319 405 437 342 124 0 0 0 0 0 0 2 19 1 15 46 8 10 0 7 64 43 391 511 674
0 0 0 0 0 0 0 0 0 0 0 0 3 64 127 198 252 275 250 223 96 181 362 277 126 1 0 0 0 0 3 0 0 0 4 10 51 4 0 2 19 23 32 140 814
0 0 0 0 0 0 0 0 0 0 0 0 0 9 155 170 254 216 177 194 30 151 276 227 16 0 0 0 0 0 0 0 0 0 0 0 0 0 0 0 0 34 79 168 341
0 0 0 0 0 0 0 0 0 0 0 0 0 0 0 98 61 134 66 0 1 74 378 153 0 2 1 0 0 0 0 0 0 0 0 0 0 0 0 0 0 29 59 269 520
0 0 0 0 0 0 0 0 0 0 0 0 0 0 0 81 88 163 12 0 0 58 0 0 0 0 0 2 0 0 0 0 0 0 0 0 0 8 0 3 46 99 195 644 754
0 0 0 0 0 0 0 0 0 0 0 0 0 0 26 176 175 0 0 0 0 2 0 3 0 0 0 0 0 0 0 0 0 0 0 3 11 52 30 48 42 180 518 956 1074
41 1 0 0 0 0 0 0 0 0 0 0 0 0 0 1 20 0 0 0 0 0 0 0 0 0 0 0 0 0 0 0 0 0 0 1 29 71 135 143 186 284 422 956 1483
0 0 11 0 0 0 0 0 0 0 0 0 0 2 0 4 8 5 2 0 0 0 0 0 0 0 0 0 0 0 0 0 0 0 0 3 138 254 344 420 460 411 448 753 1450
CIN
-0 -0 -0 -0 -0 -0 -0 -0 -0 -0 -0 -0 -0 -0 -0 -0 -0 -0 -0 -0 -0 -0 -316 -0 -134 -74 -84 -84 -121 -102 -0 -0 -0 -0 -0 -3 -7 -16 -19 -47 -27 -32 -26 -77 -82
-0 -0 -0 -0 -0 -0 -0 -0 -0 -0 -0 -0 -0 -0 -0 -0 -0 -0 -0 -0 -466 -426 -95 -90 -53 -55 -44 -54 -69 -38 -0 -0 -5 -7 -0 -2 -15 -26 -22 -43 -18 -36 -67 -112 -99
-0 -0 -0 -0 -0 -0 -0 -0 -0 -0 -0 -0 -0 -0 -0 -0 -0 -0 -0 -0 -424 -318 -65 -62 -49 -68 -48 -54 -34 -46 -0 -15 -13 -9 -6 -3 -35 -28 -20 -5 -6 -8 -57 -119 -118
-0 -0 -0 -0 -0 -0 -0 -0 -0 -0 -0 -0 -0 -0 -0 -0 -0 -0 -0 -445 -390 -111 -62 -49 -38 -50 -27 -18 -36 -5 -26 -45 -34 -10 -6 -3 -8 -26 -32 -10 -21 -16 -69 -109 -112
-0 -0 -0 -0 -0 -0 -0 -0 -0 -0 -0 -0 -0 -0 -0 -0 -0 -0 -482 -305 -123 -63 -105 -96 -43 -58 -30 -22 -40 -26 -23 -31 -41 -17 -14 -19 -8 -5 -21 -49 -24 -42 -78 -96 -101
-0 -0 -0 -0 -0 -0 -0 -0 -0 -0 -0 -0 -0 -0 -0 -0 -0 -0 -0 -170 -64 -45 -60 -128 -76 -81 -52 -43 -43 -43 -28 -29 -36 -16 -16 -9 -8 -13 -39 -36 -33 -47 -68 -88 -121
-0 -0 -0 -0 -0 -0 -0 -0 -0 -0 -0 -0 -0 -0 -0 -0 -0 -0 -168 -132 -89 -57 -31 -68 -94 -49 -55 -43 -48 -23 -10 -18 -17 -65 -16 -20 -0 -4 -37 -37 -34 -38 -48 -101 -108
-0 -0 -0 -0 -0 -0 -0 -0 -0 -0 -0 -0 -0 -0 -0 -0 -0 -0 -212 -137 -83 -66 -74 -88 -97 -33 -28 -30 -32 -17 -12 -0 -6 -10 -37 -14 -1 -25 -51 -24 -16 -21 -33 -77 -108
-0 -0 -0 -0 -0 -0 -0 -0 -0 -0 -0 -0 -0 -0 -0 -0 -0 -0 -0 -132 -95 -74 -89 -123 -83 -28 -33 -13 -8 -15 -0 -3 -4 -14 -9 -9 -0 -28 -50 -33 -24 -20 -19 -40 -58
-0 -0 -0 -0 -0 -0 -0 -0 -0 -0 -0 -0 -0 -0 -0 -0 -0 -0 -0 -8 -107 -73 -63 -81 -54 -21 -29 -6 -0 -1 -0 -3 -1 -8 -17 -1 -0 -5 -37 -51 -28 -33 -33 -22 -27
-0 -0 -0 -0 -0 -0 -0 -0 -0 -0 -0 -0 -0 -0 -0 -0 -0 -0 -0 -0 -54 -36 -12 -45 -4 -0 -2 -15 -27 -18 -3 -1 -2 -27 -13 -0 -5 -6 -21 -48 -45 -32 -30 -35 -33
-0 -0 -0 -0 -0 -0 -0 -0 -0 -0 -0 -0 -0 -0 -0 -0 -0 -0 -0 -57 -30 -5 -26 -11 -0 -17 -29 -37 -25 -10 -0 -0 -7 -19 -18 -1 -0 -8 -25 -36 -30 -34 -32 -37 -39
-0 -0 -0 -0 -0 -0 -0 -0 -0 -0 -0 -0 -0 -0 -0 -0 -0 -0 -0 -41 -29 -30 -18 -18 -1 -27 -34 -13 -8 -1 -1 -5 -3 -14 -19 -6 -0 -0 -26 -33 -36 -34 -29 -20 -24
-0 -0 -0 -0 -0 -0 -0 -0 -0 -0 -0 -0 -0 -0 -0 -0 -0 -0 -0 -68 -33 -23 -19 -2 -13 -20 -7 -3 -4 -1 -18 -23 -20 -1 -0 -17 -0 -0 -0 -2 -15 -15 -25 -18 -22
-1 -0 -0 -0 -0 -0 -0 -0 -0 -0 -0 -0 -0 -0 -0 -0 -0 -0 -0 -1 -23 -18 -25 -0 -5 -2 -0 -2 -13 -6 -35 -19 -17 -2 -1 -0 -0 -4 -4 -0 -0 -0 -8 -15 -20
-0 -0 -0 -0 -0 -0 -0 -0 -0 -0 -0 -0 -0 -0 -0 -0 -28 -29 -0 -13 -37 -21 -15 -10 -16 -18 -2 -13 -14 -37 -21 -21 -10 -0 -2 -7 -2 -10 -0 -0 -0 -0 -0 -29 -21
-0 -0 -0 -0 -0 -0 -0 -0 -0 -0 -0 -0 -0 -0 -20 -27 -27 -11 -10 -10 -1 -0 -0 -1 -1 -8 -30 -5 -16 -23 -2 -0 -0 -0 -0 -18 -3 -28 -1 -6 -2 -1 -5 -11 -16
-0 -0 -0 -0 -0 -0 -0 -0 -0 -0 -0 -0 -0 -0 -0 -13 -24 -12 -1 -0 -3 -1 -0 -0 -0 -0 -0 -0 -1 -0 -1 -0 -0 -0 -0 -20 -0 -1 -6 -15 -17 -25 -8 -7 -12
-0 -0 -0 -0 -0 -0 -0 -0 -0 -0 -0 -0 -0 -0 -72 -62 -17 -8 -0 -0 -0 -2 -0 -0 -0 -0 -0 -0 -6 -8 -0 -0 -0 -0 -0 -0 -0 -0 -8 -8 -16 -11 -13 -7 -6
-0 -0 -0 -0 -0 -0 -0 -0 -0 -0 -0 -0 -45 -23 -6 -15 -7 -0 -0 -0 -0 -6 -2 -2 -0 -0 -0 -0 -0 -0 -0 -0 -0 -0 -0 -0 -0 -0 -0 -12 -19 -9 -2 -2 -0
-0 -0 -0 -0 -0 -0 -0 -0 -0 -0 -0 -0 -13 -13 -5 -1 -1 -0 -0 -3 -16 -24 -16 -0 -0 -0 -0 -0 -0 -0 -0 -0 -0 -0 -0 -0 -0 -2 -0 -16 -49 -42 -53 -29 -4
-0 -0 -0 -0 -0 -0 -0 -0 -0 -0 -0 -0 -0 -33 -2 -0 -0 -0 -0 -3 -53 -26 -9 -6 -0 -0 -0 -0 -0 -0 -0 -0 -0 -0 -0 -0 -0 -0 -0 -0 -8 -126 -100 -70 -76
-0 -0 -0 -0 -0 -0 -0 -0 -0 -0 -0 -0 -0 -0 -2 -24 -16 -9 -24 -0 -36 -38 -6 -8 -0 -0 -0 -0 -0 -0 -0 -0 -0 -0 -0 -0 -0 -0 -0 -0 -29 -152 -138 -132 -113
-0 -0 -0 -0 -0 -0 -0 -0 -0 -0 -0 -0 -0 -0 -0 -31 -33 -16 -31 -0 -0 -44 -0 -0 -0 -0 -0 -0 -0 -0 -0 -0 -0 -0 -0 -0 -0 -48 -0 -97 -168 -154 -126 -77 -100
-0 -0 -0 -0 -0 -0 -0 -0 -0 -0 -0 -0 -0 -0 -10 -5 -9 -0 -0 -0 -0 -6 -0 -5 -0 -0 -0 -0 -0 -0 -0 -0 -0 -0 -6 -126 -127 -81 -154 -176 -212 -163 -81 -54 -81
-271 -198 -0 -0 -0 -0 -0 -0 -0 -0 -0 -0 -0 -0 -0 -6 -32 -0 -0 -0 -0 -0 -0 -0 -0 -0 -0 -0 -0 -0 -0 -0 -0 -0 -0 -73 -123 -121 -146 -141 -127 -87 -59 -17 -50
-0 -0 -322 -0 -0 -0 -0 -0 -0 -0 -0 -0 -0 -6 -0 -67 -99 -85 -66 -0 -0 -0 -0 -0 -0 -0 -0 -0 -0 -0 -0 -0 -0 -0 -0 -87 -142 -148 -141 -110 -78 -68 -44 -14 -15
Wind_Speed
11 12 12 11 11 10 10 10 11 12 12 11 11 11 11 11 15 7 9 3 0 11 6 7 6 2 3 2 2 3 4 7 7 6 7 8 6 4 3 11 2 3 3 14 20
11 12 12 11 11 10 10 11 12 11 12 11 11 11 11 11 11 12 5 8 7 12 7 6 4 2 3 2 1 4 3 5 4 4 5 6 2 7 6 9 6 6 7 19 20
11 12 11 11 12 11 11 11 11 11 12 11 11 11 11 13 9 7 1 9 5 8 1 3 3 3 4 3 1 3 4 3 3 2 1 3 4 4 2 5 4 9 17 19 20
11 12 12 12 12 11 11 11 11 12 12 12 11 11 12 7 3 6 3 8 7 7 2 4 4 3 2 3 3 5 4 1 2 1 3 2 4 4 3 7 4 13 18 20 19
11 12 12 12 12 12 11 11 12 13 12 12 11 11 8 7 5 6 11 9 10 5 2 3 4 3 4 3 3 3 4 2 3 2 4 4 3 1 3 2 10 15 17 18 17
12 12 12 12 13 12 11 11 13 13 12 11 10 12 7 5 5 8 11 9 6 4 2 1 2 4 3 2 3 4 5 3 1 1 4 4 3 4 5 7 13 14 16 16 15
12 12 13 13 13 13 12 12 14 13 12 10 9 7 7 5 2 8 9 5 5 1 1 3 1 7 0 2 3 5 5 3 3 1 2 5 7 2 7 10 14 13 13 13 14
12 12 13 13 13 13 12 14 15 13 11 9 6 6 5 3 3 10 7 6 5 2 4 3 5 5 5 2 5 6 6 3 6 5 6 8 5 5 8 10 13 12 12 12 13
12 13 13 13 13 13 14 16 15 9 7 6 7 5 2 5 7 12 11 5 6 4 2 3 7 3 7 4 5 4 2 4 2 7 2 6 1 6 8 9 11 12 12 13 13
12 12 12 12 13 13 16 10 1 5 6 6 4 7 5 4 6 10 7 7 6 4 8 7 5 7 5 7 6 4 2 2 2 4 7 6 5 9 10 8 10 11 11 13 14
11 11 11 12 12 11 12 6 7 8 7 6 4 3 4 8 8 9 9 10 7 8 4 2 10 5 7 2 2 3 3 2 5 2 5 2 4 4 9 9 9 11 14 13 14
11 10 10 10 11 10 8 6 5 7 5 12 9 6 7 2 4 10 11 10 7 5 4 9 6 6 2 0 3 3 4 8 7 3 5 5 7 7 7 8 10 10 10 12 14
10 9 9 9 9 8 6 4 0 5 7 7 7 6 5 11 7 13 15 8 7 6 3 6 6 3 4 2 6 7 8 7 8 2 3 6 11 10 8 5 6 9 8 10 11
8 8 7 6 7 2 5 4 5 4 6 12 9 6 8 7 6 8 14 5 3 5 6 3 3 4 3 3 6 8 6 5 4 8 6 7 9 6 6 8 8 8 9 10 11
7 6 6 6 6 6 6 2 4 6 6 7 9 6 6 8 7 7 13 7 10 3 6 7 6 7 6 5 3 8 3 4 2 3 7 7 9 12 7 9 11 11 10 9 9
6 6 4 6 5 4 4 5 6 8 2 7 8 11 12 10 5 7 9 9 4 7 8 9 6 7 4 2 4 4 4 3 4 5 3 6 10 10 13 9 12 10 10 8 8
5 6 7 5 2 2 5 6 7 8 4 7 10 11 13 9 8 6 10 12 9 4 5 5 7 2 5 9 6 9 15 6 3 5 10 5 7 8 7 5 5 7 10 11 8
6 8 9 7 4 6 6 7 7 2 3 2 6 11 12 10 5 6 7 9 7 7 8 5 11 6 4 5 8 3 10 6 4 4 6 4 1 9 3 2 6 7 10 7 9
9 6 4 4 10 5 7 9 1 2 2 4 8 10 11 7 5 7 9 8 2 11 6 6 7 5 1 4 6 6 6 10 10 7 8 5 3 9 6 3 2 5 10 13 12
3 5 5 3 8 6 8 5 0 2 5 6 10 11 12 12 10 8 7 5 3 8 7 4 4 3 4 5 5 7 5 8 4 5 8 4 5 3 5 8 9 8 8 11 11
5 6 5 6 7 6 9 2 3 1 4 4 9 7 6 10 13 6 1 6 1 5 7 4 7 8 8 7 7 2 5 2 7 6 10 9 4 7 4 9 12 13 11 11 12
4 5 5 6 8 5 10 3 3 6 2 5 5 8 7 9 8 8 7 2 1 5 7 5 5 5 7 4 0 4 4 10 6 5 1 8 12 4 3 11 11 14 14 14 12
2 5 5 5 8 9 6 8 6 8 3 3 5 6 1 4 5 7 1 4 4 6 3 5 8 7 7 12 7 6 0 6 8 9 11 9 9 2 10 14 10 13 11 11 12
4 6 5 6 4 9 8 9 6 3 6 5 3 5 6 6 4 5 6 3 2 6 4 3 10 10 11 12 8 11 7 6 12 10 11 13 16 13 10 11 11 13 14 14 9
4 2 1 9 10 7 4 1 6 4 7 5 5 8 8 6 10 5 3 6 5 6 4 7 11 7 12 9 9 13 14 14 15 15 17 18 18 16 12 14 14 13 12 11 7
4 3 4 0 6 10 5 6 6 2 4 7 3 3 7 4 3 2 3 4 1 6 4 4 7 6 13 15 14 15 19 19 19 18 17 16 14 11 16 14 12 13 12 9 6
1 2 6 6 10 9 8 6 5 2 4 1 4 6 7 6 5 5 2 3 3 3 7 6 7 8 15 18 11 16 17 10 11 11 10 10 14 13 13 14 14 14 13 11 6
Wind_Direction
341 340 347 346 344 342 337 331 327 334 331 323 322 316 316 320 295 231 268 70 72 158 214 151 216 223 274 284 305 279 218 93 77 24 67 140 150 143 106 141 130 92 74 130 144
338 337 343 343 339 336 335 330 333 332 322 316 315 313 318 320 281 270 117 128 152 169 164 192 204 222 272 293 246 284 292 70 77 77 57 147 198 135 168 153 138 105 117 131 153
335 335 340 339 333 332 328 333 334 323 312 315 315 323 307 306 271 76 165 148 167 213 256 236 202 243 273 257 96 25 15 59 88 69 148 128 179 155 137 174 137 147 146 154 158
332 332 334 334 329 327 328 336 329 313 312 317 323 312 309 253 5 48 171 128 164 234 163 180 204 261 279 302 44 283 84 7 49 67 165 202 122 173 212 48 39 132 158 162 167
329 329 329 326 323 324 330 332 321 310 317 318 319 311 279 239 42 69 128 136 174 193 34 289 201 303 313 320 309 307 33 287 18 267 196 166 187 13 171 90 114 133 158 170 173
325 326 323 322 321 324 329 326 310 313 313 314 312 309 260 267 68 127 141 158 159 187 56 158 315 311 302 317 295 350 311 288 111 78 148 239 178 208 115 141 134 147 161 174 177
321 323 321 321 320 323 325 314 306 309 305 305 303 292 260 353 50 162 166 153 171 233 309 40 197 252 48 253 280 281 290 210 126 87 86 305 197 136 136 163 149 152 162 173 180
320 320 319 319 319 321 317 308 302 296 292 287 282 260 294 74 131 166 183 168 180 212 319 253 244 281 258 293 208 249 243 240 117 185 150 239 108 125 156 167 163 158 162 178 185
319 318 318 318 318 320 312 306 290 273 248 262 244 266 148 144 181 174 191 179 192 214 226 243 235 278 196 234 169 205 76 219 212 203 230 250 53 130 166 180 169 174 173 181 187
317 315 316 315 316 317 310 283 242 207 211 220 267 250 202 84 143 172 172 172 212 221 217 222 216 222 182 229 73 65 79 88 338 119 234 268 284 172 184 213 187 185 191 193 196
315 312 312 312 314 320 308 209 207 179 210 276 91 352 113 90 155 183 178 206 212 235 284 110 244 51 44 50 39 322 322 358 69 62 261 317 293 263 167 198 199 199 192 204 210
315 308 308 309 307 312 273 262 29 7 262 222 246 263 245 247 191 176 191 217 219 296 292 204 87 50 58 352 262 290 276 58 120 61 255 39 60 86 137 182 191 209 206 207 208
314 303 303 303 303 266 254 282 248 319 256 160 186 232 213 197 224 178 193 211 264 291 308 284 34 315 272 164 247 110 357 13 358 75 190 277 112 113 130 161 174 204 210 206 215
308 297 290 299 273 143 217 164 278 277 260 148 190 171 174 232 207 146 202 236 215 328 334 295 29 296 276 277 274 100 350 305 293 256 106 310 122 139 127 131 173 187 191 204 204
302 284 265 263 334 218 63 313 288 223 239 121 135 109 168 226 120 156 191 216 265 296 280 63 322 335 291 23 307 48 308 303 256 204 216 162 270 113 172 174 156 157 168 193 202
291 255 223 205 230 299 289 283 229 229 213 148 144 177 183 193 130 132 181 231 299 274 252 273 280 280 327 306 267 157 221 172 199 229 124 49 289 171 157 188 179 177 174 185 199
268 218 213 307 73 341 282 203 216 254 142 160 181 186 208 173 179 191 183 200 240 253 155 279 211 201 259 251 180 224 246 218 231 194 62 33 261 79 108 181 252 206 198 191 192
217 188 196 271 306 303 213 222 246 39 204 121 208 198 204 176 191 188 208 225 214 265 261 284 157 199 158 307 326 282 321 337 297 354 59 136 292 86 32 338 291 263 253 251 202
168 189 227 196 214 263 234 221 218 150 39 201 178 200 188 183 292 222 237 270 236 206 274 210 124 129 51 308 278 128 247 13 295 180 260 110 161 254 105 86 341 278 240 230 215
227 191 132 126 175 237 239 288 174 335 326 223 216 207 190 188 207 207 182 133 213 211 257 92 236 98 95 196 111 309 352 266 221 293 277 157 252 262 38 5 357 337 291 263 222
232 198 91 164 197 222 230 212 294 325 289 262 225 177 218 165 226 207 269 128 183 157 221 221 266 129 215 25 358 214 219 231 291 297 311 296 350 74 65 353 332 320 312 306 271
271 178 125 192 208 211 231 241 1 278 208 247 270 273 215 206 223 239 254 297 81 187 199 207 298 275 40 113 350 311 7 292 337 314 296 293 284 102 316 315 299 296 301 306 310
206 102 165 264 217 207 194 249 257 278 277 222 230 250 270 236 251 237 194 77 250 232 210 184 242 273 185 163 175 245 173 317 295 272 270 298 292 349 317 306 299 303 301 304 294
248 145 149 216 293 280 202 231 236 195 284 268 285 194 190 190 180 186 206 106 161 217 26 250 270 289 305 341 336 293 267 235 300 293 303 294 312 316 321 297 300 329 339 319 303
229 122 123 186 205 226 234 268 231 208 217 233 180 234 195 176 191 192 180 142 151 139 215 272 272 281 283 299 277 280 286 289 276 275 288 305 299 310 316 329 326 320 314 317 303
280 220 182 156 169 213 160 212 245 211 257 141 251 218 204 200 216 196 196 227 102 167 225 224 280 292 286 283 275 276 293 288 282 278 269 285 282 358 341 319 316 314 320 309 291
60 255 281 142 200 216 207 222 209 293 140 324 306 250 187 57 355 350 41 30 123 189 204 254 287 273 287 300 314 274 282 291 293 292 316 298 2 356 347 344 333 328 323 317 302